Weather History for Glencoe, MN

Change the Weather History Date:

Tuesday, November 27, 2012

  Actual Average (KHCD) Record (KHCD)
Temperature  
Mean Temperature 26 °F -  
Max Temperature 40 °F 31 °F 60 °F (1998)
Min Temperature 13 °F 15 °F -10 °F (1985)
Degree Days  
Heating Degree Days 38    
Moisture  
Dew Point 17 °F    
Average Humidity 73    
Maximum Humidity 89    
Minimum Humidity 52    
Precipitation  
Precipitation 0.00 in - - ()
Sea Level Pressure  
Sea Level Pressure 30.18 in    
Wind  
Wind Speed 6 mph (SW)    
Max Wind Speed 14 mph    
Max Gust Speed 22 mph    
Visibility 10 miles    
Events      
Averages and records for this station are not official NWS values.
T = Trace of Precipitation, MM = Missing Value Source: NWS Daily Summary

Daily Weather History Graph

Daily Weather History Graph

Search for Another Location

Airport:

Trip Planner

Search our weather history database for the weather conditions in past years. The results will help you decide how hot, cold, wet, or windy it might be!

Date:

Astronomy

Nov. 27, 2012 Rise Set
Actual Time 7:29 AM CST 4:38 PM CST
Civil Twilight 6:56 AM CST 5:11 PM CST
Nautical Twilight 6:20 AM CST 5:47 PM CST
Astronomical Twilight 5:45 AM CST 6:22 PM CST
Moon 4:11 PM CST (11/27) 6:34 AM CST (11/27)
Length of Visible Light 10h 14m
Length of Day
9h 09m
Waxing Gibbous, 99% of the Moon is Illuminated
Nov 27
Waxing Gibbous
Nov 28
Full
Dec 6
Last Quarter
Dec 13
New
Dec 19
First Quarter

Hourly Weather History & Observations

Time (CST) Temp. Windchill Dew Point Humidity Pressure Visibility Wind Dir Wind Speed Gust Speed Precip Events Conditions
12:15 AM 14.7 °F 4.8 °F 7.7 °F 74% 30.32 in 10.0 mi SSW 6.9 mph - N/A   Clear
12:36 AM 14.4 °F 5.5 °F 7.7 °F 75% 30.31 in 10.0 mi SSW 5.8 mph - N/A   Clear
12:56 AM 14.0 °F - 7.5 °F 75% 30.30 in 10.0 mi Calm Calm - N/A   Clear
1:15 AM 13.8 °F 8.0 °F 7.7 °F 77% 30.30 in 10.0 mi SSW 3.5 mph - N/A   Clear
1:36 AM 14.5 °F - 8.2 °F 76% 30.30 in 10.0 mi Calm Calm - N/A   Mostly Cloudy
1:56 AM 14.7 °F - 8.4 °F 76% 30.30 in 10.0 mi Calm Calm - N/A   Overcast
2:15 AM 14.2 °F 5.3 °F 7.9 °F 76% 30.29 in 10.0 mi SSW 5.8 mph - N/A   Scattered Clouds
2:36 AM 14.5 °F 8.8 °F 8.4 °F 77% 30.29 in 10.0 mi South 3.5 mph - N/A   Clear
2:56 AM 15.4 °F 9.8 °F 8.8 °F 75% 30.29 in 10.0 mi South 3.5 mph - N/A   Clear
3:15 AM 15.6 °F 8.3 °F 9.3 °F 76% 30.28 in 10.0 mi South 4.6 mph - N/A   Clear
3:56 AM 15.8 °F 7.2 °F 9.3 °F 76% 30.27 in 10.0 mi South 5.8 mph - N/A   Clear
4:15 AM 15.4 °F 8.1 °F 9.5 °F 77% 30.26 in 10.0 mi South 4.6 mph - N/A   Clear
4:36 AM 15.4 °F 6.8 °F 9.5 °F 77% 30.25 in 10.0 mi South 5.8 mph - N/A   Clear
4:55 AM 15.8 °F 7.2 °F 9.9 °F 77% 30.24 in 10.0 mi South 5.8 mph - N/A   Clear
5:15 AM 15.4 °F 6.8 °F 9.5 °F 77% 30.24 in 10.0 mi South 5.8 mph - N/A   Clear
5:36 AM 15.4 °F 5.6 °F 9.5 °F 77% 30.23 in 10.0 mi South 6.9 mph - N/A   Clear
5:55 AM 15.1 °F 6.4 °F 9.5 °F 79% 30.23 in 10.0 mi South 5.8 mph - N/A   Clear
6:15 AM 14.9 °F 6.1 °F 9.5 °F 79% 30.23 in 10.0 mi South 5.8 mph - N/A   Clear
6:36 AM 14.5 °F 3.6 °F 9.1 °F 79% 30.22 in 10.0 mi South 8.1 mph - N/A   Clear
6:55 AM 14.4 °F 6.9 °F 9.1 °F 80% 30.22 in 10.0 mi South 4.6 mph - N/A   Clear
7:16 AM 14.7 °F 3.8 °F 9.3 °F 79% 30.21 in 10.0 mi South 8.1 mph - N/A   Clear
7:36 AM 14.9 °F 4.0 °F 9.5 °F 79% 30.20 in 10.0 mi South 8.1 mph - N/A   Clear
7:55 AM 14.9 °F 4.0 °F 9.5 °F 79% 30.20 in 10.0 mi South 8.1 mph - N/A   Clear
8:16 AM 15.8 °F 4.2 °F 10.2 °F 79% 30.18 in 10.0 mi South 9.2 mph - N/A   Clear
8:36 AM 16.9 °F 5.5 °F 10.8 °F 77% 30.17 in 10.0 mi South 9.2 mph - N/A   Clear
8:55 AM 19.2 °F 7.7 °F 12.4 °F 75% 30.17 in 10.0 mi South 10.4 mph - N/A   Scattered Clouds
9:16 AM 21.6 °F 13.0 °F 14.2 °F 73% 30.17 in 10.0 mi South 6.9 mph 16.1 mph N/A   Scattered Clouds
9:36 AM 23.5 °F 12.4 °F 15.6 °F 72% 30.17 in 10.0 mi SSW 11.5 mph - N/A   Mostly Cloudy
9:55 AM 25.5 °F 16.2 °F 17.4 °F 71% 30.16 in 10.0 mi SSW 9.2 mph - N/A   Overcast
10:16 AM 27.0 °F 16.7 °F 18.5 °F 70% 30.16 in 10.0 mi SSW 11.5 mph - N/A   Overcast
10:36 AM 28.6 °F 18.7 °F 19.4 °F 69% 30.15 in 10.0 mi South 11.5 mph 16.1 mph N/A   Overcast
10:55 AM 30.4 °F 20.5 °F 20.7 °F 67% 30.15 in 10.0 mi SSW 12.7 mph - N/A   Overcast
11:16 AM 32.5 °F 22.7 °F 21.9 °F 65% 30.13 in 10.0 mi South 13.8 mph 20.7 mph N/A   Mostly Cloudy
11:35 AM 34.7 °F 25.5 °F 22.8 °F 62% 30.12 in 10.0 mi SSW 13.8 mph 19.6 mph N/A   Clear
11:55 AM 35.6 °F 29.2 °F 23.5 °F 62% 30.12 in 10.0 mi SSW 8.1 mph 17.3 mph N/A   Mostly Cloudy
12:16 PM 36.5 °F 29.2 °F 24.3 °F 61% 30.10 in 10.0 mi SSW 10.4 mph 17.3 mph N/A   Overcast
12:35 PM 37.6 °F 29.6 °F 24.6 °F 60% 30.09 in 10.0 mi SSW 12.7 mph 17.3 mph N/A   Overcast
12:55 PM 38.5 °F 30.7 °F 24.6 °F 58% 30.08 in 10.0 mi SSW 12.7 mph 19.6 mph N/A   Mostly Cloudy
1:16 PM 39.2 °F 31.2 °F 24.3 °F 55% 30.08 in 10.0 mi SW 13.8 mph 21.9 mph N/A   Scattered Clouds
1:35 PM 39.4 °F 34.5 °F 24.4 °F 55% 30.07 in 10.0 mi SW 6.9 mph - N/A   Mostly Cloudy
1:56 PM 39.6 °F 32.5 °F 24.6 °F 55% 30.07 in 10.0 mi SW 11.5 mph 18.4 mph N/A   Mostly Cloudy
2:16 PM 39.9 °F 33.9 °F 24.4 °F 54% 30.06 in 10.0 mi SW 9.2 mph 16.1 mph N/A   Overcast
2:35 PM 39.6 °F 34.0 °F 23.9 °F 54% 30.06 in 10.0 mi SW 8.1 mph 16.1 mph N/A   Mostly Cloudy
2:56 PM 40.1 °F 33.2 °F 23.9 °F 52% 30.07 in 10.0 mi WSW 11.5 mph 18.4 mph N/A   Scattered Clouds
3:16 PM 38.8 °F 32.6 °F 23.9 °F 55% 30.07 in 10.0 mi WSW 9.2 mph 16.1 mph N/A   Clear
3:35 PM 37.6 °F 31.0 °F 23.7 °F 57% 30.08 in 10.0 mi WSW 9.2 mph - N/A   Clear
3:56 PM 36.3 °F 30.1 °F 23.4 °F 59% 30.09 in 10.0 mi SW 8.1 mph - N/A   Clear
4:16 PM 34.9 °F 29.0 °F 23.0 °F 62% 30.09 in 10.0 mi WSW 6.9 mph - N/A   Clear
4:35 PM 33.8 °F 28.6 °F 23.0 °F 65% 30.10 in 10.0 mi SW 5.8 mph - N/A   Clear
4:56 PM 32.4 °F 27.9 °F 22.6 °F 67% 30.10 in 10.0 mi WSW 4.6 mph - N/A   Clear
5:16 PM 31.6 °F 27.0 °F 22.1 °F 68% 30.11 in 10.0 mi WSW 4.6 mph - N/A   Clear
5:56 PM 29.8 °F 24.9 °F 21.6 °F 71% 30.12 in 10.0 mi WSW 4.6 mph - N/A   Clear
6:15 PM 29.1 °F 22.1 °F 21.9 °F 74% 30.13 in 10.0 mi West 6.9 mph - N/A   Clear
6:36 PM 28.6 °F 21.5 °F 21.2 °F 74% 30.14 in 10.0 mi West 6.9 mph - N/A   Clear
6:56 PM 28.6 °F 21.5 °F 21.6 °F 75% 30.15 in 10.0 mi West 6.9 mph - N/A   Clear
7:15 PM 27.1 °F 19.7 °F 21.6 °F 80% 30.15 in 10.0 mi WNW 6.9 mph - N/A   Clear
7:36 PM 27.1 °F 21.8 °F 21.7 °F 80% 30.16 in 10.0 mi West 4.6 mph - N/A   Clear
7:56 PM 26.4 °F - 21.2 °F 81% 30.16 in 10.0 mi Calm Calm - N/A   Clear
8:15 PM 23.9 °F 18.0 °F 19.6 °F 84% 30.17 in 10.0 mi WNW 4.6 mph - N/A   Clear
8:36 PM 24.8 °F 17.9 °F 20.3 °F 83% 30.18 in 10.0 mi WNW 5.8 mph - N/A   Clear
8:56 PM 24.6 °F 17.7 °F 20.7 °F 85% 30.18 in 10.0 mi WNW 5.8 mph - N/A   Clear
9:15 PM 24.1 °F 17.0 °F 20.3 °F 85% 30.20 in 10.0 mi WNW 5.8 mph - N/A   Clear
9:36 PM 23.9 °F 18.0 °F 20.1 °F 85% 30.20 in 10.0 mi West 4.6 mph - N/A   Clear
9:56 PM 24.1 °F 16.0 °F 20.5 °F 86% 30.21 in 10.0 mi WNW 6.9 mph - N/A   Clear
10:15 PM 23.9 °F 15.8 °F 20.3 °F 86% 30.22 in 10.0 mi WNW 6.9 mph - N/A   Clear
10:36 PM 23.7 °F - 20.1 °F 86% 30.23 in 10.0 mi Calm Calm - N/A   Clear
10:55 PM 22.1 °F - 18.9 °F 87% 30.24 in 10.0 mi Calm Calm - N/A   Clear
11:16 PM 21.7 °F - 18.9 °F 89% 30.24 in 10.0 mi Calm Calm - N/A   Clear
11:55 PM 22.6 °F - 19.9 °F 89% 30.25 in 10.0 mi Calm Calm - N/A   Mostly Cloudy